Regional Weather Roundup
Issued by NWS

Home | Current Version | Previous Version | Graphics & Text | Print | Product List | Glossary On
Versions: 1 2 3 4 5 6 7 8 9 10 11 12 13 14 15 16 17 18 19 20 21 22 23 24 25 26 27 28 29 30 31 32 33 34 35 36 37 38 39 40 41 42 43 44 45 46 47 48 49 50
000
ASUS43 KOAX 291010
RWRNE

WEATHER ROUNDUP FOR NEBRASKA
NATIONAL WEATHER SERVICE OMAHA NE
500 AM CDT MON AUG 29 2016

NOTES: SATELLITE DATA IS BEING USED TO AUGMENT CLOUD COVER ABOVE
       12000 FEET.
       "FAIR" INDICATES FEW OR NO CLOUDS BELOW 12,000 FEET WITH NO
       SIGNIFICANT WEATHER AND/OR OBSTRUCTIONS TO VISIBILITY.

  * THESE STATIONS DO NOT REPORT WEATHER SUCH AS RAIN...SNOW OR FOG.

NEZ001>004-019>022-054>056-291100-
NEBRASKA PANHANDLE

CITY           SKY/WX    TMP DP  RH WIND       PRES   REMARKS
SCOTTSBLUFF    CLEAR     56  52  86 E6        30.18R
ALLIANCE       CLEAR     55  52  89 CALM      30.17S
CHADRON        PTCLDY    56  51  84 SW3       30.13S
KIMBALL        CLOUDY    55  51  85 SW8       30.24R
SIDNEY         CLOUDY    54  49  83 NW7       30.21S
$$

NEZ057>060-069>072-079>082-291100-
SOUTHWEST NEBRASKA

CITY           SKY/WX    TMP DP  RH WIND       PRES   REMARKS
NORTH PLATTE   MOCLDY    65  63  93 SE8       30.15R
IMPERIAL       CLEAR     64  61  90 CALM      30.14S
LEXINGTON      CLOUDY    67  64  88 S6        30.17F
MCCOOK         TSTM      67  64  90 E12       30.17S
OGALLALA       CLEAR     65  60  86 CALM      30.15S
$$

NEZ005>010-023>029-035>040-094-291100-
NORTH CENTRAL NEBRASKA

CITY           SKY/WX    TMP DP  RH WIND       PRES   REMARKS
VALENTINE      PTCLDY    62  56  80 W3        30.12S
AINSWORTH      CLEAR     63  61  94 S7        30.14S
BROKEN BOW     CLOUDY    67  64  90 S6        30.16S
O`NEILL        CLEAR     68  66  92 S5        30.14S
ORD            MOCLDY    67  60  78 SE3       30.13F
THEDFORD       CLEAR     64  60  87 SE5       30.15S
$$

NEZ041-046>049-061>064-073>077-083>087-291100-
SOUTH CENTRAL NEBRASKA

CITY           SKY/WX    TMP DP  RH WIND       PRES   REMARKS
GRAND ISLAND   CLOUDY    67  61  81 SE15      30.11F
AURORA         CLOUDY    65  64  96 CALM      30.13R
HASTINGS       PTCLDY    64  61  90 W8        30.11F
HEBRON         CLOUDY    66  64  92 CALM      30.12F
HOLDREGE       CLOUDY    64  61  93 CALM      30.15F
KEARNEY *      PTCLDY    64  59  82 W3        30.13F
YORK           MOCLDY    64  64 100 E7        30.14R
$$

NEZ011>018-030>034-042>045-291100-
NORTHEAST NEBRASKA

CITY           SKY/WX    TMP DP  RH WIND       PRES   REMARKS
NORFOLK        MOCLDY    66  64  93 CALM      30.14S
ALBION         CLOUDY    67  63  86 SE5       30.15S
BLAIR          CLOUDY    69  67  93 CALM      30.15S
FREMONT        CLOUDY    69  66  92 CALM      30.16S
TEKAMAH        CLOUDY    66  65  96 SW3       30.14S
WAYNE          CLOUDY    67  66  96 SE3       30.15S
$$

NEZ050>053-065>068-078-088>093-291100-
SOUTHEAST NEBRASKA

CITY           SKY/WX    TMP DP  RH WIND       PRES   REMARKS
LINCOLN        MOCLDY    70  67  90 E6        30.15S
OMAHA EPPLEY   CLOUDY    71  66  84 SE5       30.14S
BEATRICE       CLOUDY    68  68  99 NE3       30.13F FOG
FALLS CITY     MOCLDY    69  68  96 CALM      30.13S
NEBRASKA CITY  CLOUDY    68  68 100 SE3       30.15S
PLATTSMOUTH    CLOUDY    68  67  97 SE3       30.15S
$$

NEZ044-045-051>053-067-291100-
OMAHA AREA

CITY           SKY/WX    TMP DP  RH WIND       PRES   REMARKS
OMAHA EPPLEY   CLOUDY    71  66  84 SE5       30.14S
BLAIR          CLOUDY    69  67  93 CALM      30.15S
FREMONT        CLOUDY    69  66  92 CALM      30.16S
MILLARD        CLOUDY    71  67  88 CALM      30.14F
OFFUTT AFB     CLOUDY    69  69  97 SE3       30.13F
PLATTSMOUTH    CLOUDY    68  67  97 SE3       30.15S
WAHOO          FAIR      67  65  95 CALM      30.15S
$$




USA.gov is the U.S. government's official web portal to all federal, state and local government web resources and services.